Cork, Ireland

12:04 AM GMT on January 23, 2017 (GMT +0000)
Cork

Weather History for EICK - January, 2014

Change the Weather History Date:

Wednesday, January 15, 2014

  Actual Average Record
Temperature  
Mean Temperature 44 °F -  
Max Temperature 48 °F 46 °F 51 °F (1999)
Min Temperature 41 °F 37 °F 30 °F (2000)
Degree Days  
Heating Degree Days 20    
Moisture  
Dew Point 45 °F    
Average Humidity 93    
Maximum Humidity 100    
Minimum Humidity 79    
Precipitation  
Precipitation 0.16 in 0.17 in - ()
Sea Level Pressure  
Sea Level Pressure 29.18 in    
Wind  
Wind Speed 17 mph ()    
Max Wind Speed 25 mph    
Max Gust Speed 37 mph    
Visibility 7.3 miles    
Events Rain    
Averages and records for this station are not official NWS values.
T = Trace of Precipitation, MM = Missing Value Source: Averaged Metar Reports

Daily Weather History Graph

Daily Weather History Graph

Search for Another Location

Airport or City:

Trip Planner

Search our weather history database for the weather conditions in past years. The results will help you decide how hot, cold, wet, or windy it might be!

Date:

Astronomy

Jan. 15, 2014 Rise Set
Actual Time 8:34 AM GMT 4:52 PM GMT
Civil Twilight 7:55 AM GMT 5:31 PM GMT
Nautical Twilight 7:13 AM GMT 6:13 PM GMT
Astronomical Twilight 6:33 AM GMT 6:54 PM GMT
Moon 4:45 PM GMT (1/15) 7:35 AM GMT (1/15)
Length of Visible Light 9h 36m
Length of Day
8h 18m
Full, 100% of the Moon is Illuminated
Jan 15
Full
Jan 16
Full
Jan 24
Last Quarter
Jan 30
New
Feb 6
First Quarter

Hourly Weather History & Observations

Time (GMT) Temp. Windchill Dew Point Humidity Pressure Visibility Wind Dir Wind Speed Gust Speed Precip Events Conditions
12:00 AM 49 °F - 49 °F 98% 29.41 in 2 mi SW 20.1 mph - - Rain Light Drizzle
12:00 AM 48.2 °F - 48.2 °F 100% 29.39 in 2.2 mi SW 20.7 mph - N/A   Light Drizzle
12:30 AM 48.2 °F - 48.2 °F 100% 29.39 in - SSW 18.4 mph - N/A Rain Light Rain
1:00 AM 49 °F - 49 °F 99% 29.38 in 2 mi SW 20.1 mph - - Rain Light Rain
1:00 AM 50.0 °F - 48.2 °F 94% 29.36 in 2.5 mi SW 19.6 mph - N/A Rain Light Rain
1:30 AM 50.0 °F - 48.2 °F 94% 29.36 in 2.5 mi SW 20.7 mph - N/A   Light Drizzle
2:00 AM 49 °F - 49 °F 99% 29.36 in 2 mi SW 22.4 mph - - Rain Light Rain
2:00 AM 50.0 °F - 48.2 °F 94% 29.33 in 2.2 mi SW 21.9 mph - N/A Rain Light Rain
2:30 AM 50.0 °F - 48.2 °F 94% 29.33 in 6.2 mi SW 21.9 mph - N/A Rain Light Rain
3:00 AM 49 °F - 48 °F 97% 29.32 in 11 mi SSW 20.1 mph - - Rain Light Rain
3:00 AM 50.0 °F - 48.2 °F 94% 29.30 in 6.2 mi SSW 20.7 mph - N/A   Mostly Cloudy
3:30 AM 48.2 °F - 48.2 °F 100% 29.30 in 6.2 mi SSW 23.0 mph - N/A   Mostly Cloudy
4:00 AM 49 °F - 48 °F 94% 29.29 in 12 mi SSW 22.4 mph - -   Overcast
4:00 AM 48.2 °F - 48.2 °F 100% 29.27 in 6.2 mi SSW 21.9 mph - N/A   Mostly Cloudy
4:30 AM 48.2 °F - 48.2 °F 100% 29.27 in 6.2 mi SSW 20.7 mph - N/A   Mostly Cloudy
5:00 AM 48 °F - 48 °F 99% 29.26 in 4 mi SSW 20.1 mph - - Rain Light Rain
5:00 AM 48.2 °F - 48.2 °F 100% 29.24 in 3.7 mi SSW 20.7 mph - N/A Rain Light Rain
5:30 AM 48.2 °F - 48.2 °F 100% 29.21 in 3.1 mi SSW 21.9 mph - N/A Rain Light Rain
6:00 AM 48 °F - 48 °F 98% 29.22 in 12 mi SSW 22.4 mph - - Rain Light Rain
6:00 AM 48.2 °F - 48.2 °F 100% 29.21 in 6.2 mi SSW 23.0 mph - N/A   Overcast
6:30 AM 48.2 °F - 48.2 °F 100% 29.18 in 6.2 mi SSW 24.2 mph 36.8 mph N/A Rain Light Rain
7:00 AM 49 °F - 48 °F 96% 29.19 in 11 mi SSW 24.6 mph - - Rain Light Drizzle
7:00 AM 48.2 °F - 48.2 °F 100% 29.18 in 6.2 mi SSW 24.2 mph - N/A   Light Drizzle
7:30 AM 48.2 °F - 48.2 °F 100% 29.18 in 6.2 mi SSW 23.0 mph 35.7 mph N/A Rain Light Rain
8:00 AM 48 °F - 48 °F 98% 29.18 in 2 mi SSW 20.1 mph - - Rain Rain
8:00 AM 48.2 °F - 48.2 °F 100% 29.15 in 1.6 mi SSW 19.6 mph - N/A Rain Rain
8:30 AM 48.2 °F - 48.2 °F 100% 29.15 in 1.9 mi SSW 21.9 mph - N/A Rain Light Rain
9:00 AM 48 °F - 47 °F 96% 29.17 in 11 mi SSW 20.1 mph - - Rain Light Rain
9:00 AM 48.2 °F - 46.4 °F 93% 29.15 in 6.2 mi SSW 19.6 mph - N/A   Mostly Cloudy
9:30 AM 48.2 °F - 46.4 °F 93% 29.15 in 6.2 mi SW 18.4 mph - N/A Rain Light Rain
10:00 AM 46 °F - 45 °F 95% 29.18 in 6 mi WSW 15.7 mph - - Rain Light Rain
10:00 AM 46.4 °F 39.8 °F 44.6 °F 93% 29.15 in 5.6 mi WSW 16.1 mph - N/A Rain Light Rain
10:30 AM 44.6 °F 38.1 °F 44.6 °F 100% 29.18 in 6.2 mi SW 13.8 mph - N/A   Mostly Cloudy
11:00 AM 45 °F - 44 °F 93% 29.19 in 16 mi SW 11.2 mph - - Rain Light Rain
11:00 AM 44.6 °F 38.8 °F 44.6 °F 100% 29.18 in 6.2 mi SW 11.5 mph - N/A   Mostly Cloudy
11:30 AM 46.4 °F 40.7 °F 44.6 °F 93% 29.15 in 6.2 mi SW 12.7 mph - N/A   Mostly Cloudy
12:00 PM 46 °F - 45 °F 95% 29.18 in 16 mi SW 11.2 mph - -   Partly Cloudy
12:00 PM 46.4 °F 41.5 °F 44.6 °F 93% 29.15 in 6.2 mi SW 10.4 mph - N/A   Mostly Cloudy
12:30 PM 46.4 °F 40.7 °F 42.8 °F 87% 29.15 in 6.2 mi SW 12.7 mph - N/A   Mostly Cloudy
1:00 PM 46 °F - 44 °F 89% 29.16 in 19 mi SW 13.4 mph - - Rain Light Rain Showers
1:00 PM 46.4 °F 40.4 °F 44.6 °F 93% 29.15 in 6.2 mi SW 13.8 mph - N/A   Scattered Clouds
1:30 PM 48.2 °F - 44.6 °F 87% 29.15 in 6.2 mi SW 13.8 mph - N/A   Scattered Clouds
2:00 PM 47 °F - 43 °F 79% 29.15 in 19 mi SW 17.9 mph - -   Partly Cloudy
2:00 PM 48.2 °F - 42.8 °F 82% 29.12 in 6.2 mi SW 17.3 mph - N/A   Scattered Clouds
2:30 PM 46.4 °F 40.4 °F 44.6 °F 93% 29.12 in 6.2 mi SSW 13.8 mph - N/A   Scattered Clouds
3:00 PM 46 °F - 43 °F 87% 29.15 in 16 mi SSW 11.2 mph - -   Mostly Cloudy
3:00 PM 46.4 °F 41.1 °F 42.8 °F 87% 29.12 in 6.2 mi SSW 11.5 mph - N/A   Mostly Cloudy
3:30 PM 46.4 °F 40.1 °F 42.8 °F 87% 29.12 in 6.2 mi SSW 15.0 mph - N/A   Mostly Cloudy
4:00 PM 46 °F - 42 °F 80% 29.15 in 25 mi SSW 15.7 mph - -   Partly Cloudy
4:00 PM 46.4 °F 40.1 °F 41.0 °F 81% 29.12 in 6.2 mi SSW 15.0 mph - N/A   Scattered Clouds
4:30 PM 44.6 °F 38.4 °F 42.8 °F 93% 29.12 in 6.2 mi SSW 12.7 mph - N/A Rain Light Rain Showers
5:00 PM 44 °F - 42 °F 88% 29.15 in 14 mi SSW 11.2 mph - - Rain Light Rain Showers
5:00 PM 44.6 °F 38.8 °F 41.0 °F 87% 29.12 in 6.2 mi SSW 11.5 mph - N/A   Partly Cloudy
5:30 PM 42.8 °F 36.6 °F 41.0 °F 93% 29.12 in 6.2 mi SSW 11.5 mph - N/A   Partly Cloudy
6:00 PM 42 °F - 40 °F 91% 29.13 in 11 mi SSW 11.2 mph - -   Partly Cloudy
6:00 PM 42.8 °F 37.0 °F 41.0 °F 93% 29.12 in 6.2 mi SSW 10.4 mph - N/A   Partly Cloudy
6:30 PM 42.8 °F 36.6 °F 41.0 °F 93% 29.12 in 6.2 mi SSW 11.5 mph - N/A   Scattered Clouds
7:00 PM 44 °F - 42 °F 89% 29.13 in 2 mi SSW 15.7 mph - - Rain Light Rain Showers
7:00 PM 42.8 °F 35.4 °F 41.0 °F 93% 29.09 in 2.5 mi SSW 15.0 mph 26.5 mph N/A Rain Light Rain Showers
7:30 PM 42.8 °F 36.6 °F 41.0 °F 93% 29.09 in 6.2 mi South 11.5 mph - N/A   Scattered Clouds
8:00 PM 42 °F - 40 °F 88% 29.12 in 12 mi SSW 8.9 mph - - Rain Light Rain Showers
8:00 PM 42.8 °F 37.5 °F 39.2 °F 87% 29.09 in 6.2 mi SSW 9.2 mph - N/A   Scattered Clouds
8:30 PM 42.8 °F 37.5 °F 39.2 °F 87% 29.09 in 6.2 mi South 9.2 mph - N/A   Scattered Clouds
9:00 PM 41 °F - 39 °F 89% 29.10 in 16 mi South 8.9 mph - - Rain Light Rain Showers
9:00 PM 41.0 °F 35.2 °F 39.2 °F 93% 29.06 in 6.2 mi South 9.2 mph - N/A   Scattered Clouds
9:30 PM 42.8 °F 38.0 °F 41.0 °F 93% 29.06 in 6.2 mi South 8.1 mph - N/A   Scattered Clouds
10:00 PM 42 °F - 40 °F 92% 29.09 in 19 mi SSW 11.2 mph - - Rain Light Rain Showers
10:00 PM 42.8 °F 37.0 °F 41.0 °F 93% 29.06 in 6.2 mi SSW 10.4 mph - N/A   Scattered Clouds
10:30 PM 41.0 °F 35.8 °F 39.2 °F 93% 29.06 in 6.2 mi South 8.1 mph - N/A   Mostly Cloudy
11:00 PM 42 °F - 40 °F 91% 29.06 in 19 mi South 8.9 mph - -   Partly Cloudy
11:00 PM 42.8 °F 37.5 °F 41.0 °F 93% 29.03 in 6.2 mi South 9.2 mph - N/A   Partly Cloudy
11:30 PM 42.8 °F 37.0 °F 41.0 °F 93% 29.03 in 6.2 mi South 10.4 mph - N/A   Scattered Clouds